Flag for U.S.A. Weather past 2 weeks in Leawood, Kansas, U.S.A.

Now
51 °F

Overcast.


Feels Like: 46 °F
Forecast: 45 / 60 °F
Wind: 14 mph from Northeast

Location: Johnson County Executive Airport

Current Time: Apr 26, 2015 at 12:40:40 PM

Latest Report: Apr 26, 2015 at 11:53 AM


Visibility: 10 mi

Pressure: 29.97 "Hg

Humidity: 74%

Dew point: 43 °F

Location of LeawoodLocation

Historic Weather in Leawood — Graph

°F

Leawood temperature yesterday

Maximum temperature yesterday: 65 °F (at 2:53 PM)
Minimum temperature yesterday: 50 °F (at 9:53 PM)
Average temperature yesterday: 57 °F

Past Weeks' High & Low Weather Summary

 TemperatureHumidityPressure
High75 °F (Apr 17, 2:53 PM)100% (Apr 16, 6:53 AM)30.23 "Hg (Apr 16, 6:53 AM)
Low40 °F (Apr 22, 6:53 AM)22% (Apr 13, 1:53 PM)29.40 "Hg (Apr 25, 4:53 AM)
Average58 °F65%29.91 "Hg
* Reported Apr 11 10:53 AM — Apr 26 10:53 AM, Leawood, Weather by CustomWeather, © 2015

Note: Actual official high and low records may vary slightly from our data, if they occured in-between our weather recording intervals... More about our weather records

Advertising

Leawood weather history for previous 24 hours

 ConditionsComfort  
Time TempWeatherWind HumidityBarometerVisibility
10:53 AM
Sun, Apr 26
50 °FOvercast.13 mph77%29.96 "Hg8 mi
9:53 AM47 °FFog.13 mph86%29.95 "Hg6 mi
9:04 AM47 °FFog.12 mph90%29.94 "Hg6 mi
8:53 AM47 °FFog.13 mph90%29.93 "Hg4 mi
7:53 AM48 °FFog.13 mph89%29.91 "Hg5 mi
6:53 AM48 °FOvercast.13 mph86%29.88 "Hg8 mi
5:53 AM48 °FOvercast.12 mph89%29.85 "Hg8 mi
4:53 AM48 °FFog.10 mph93%29.84 "Hg5 mi
3:53 AM49 °FFog.13 mph93%29.82 "Hg5 mi
2:53 AM49 °FFog.12 mph93%29.81 "Hg5 mi
2:04 AM50 °FFog.14 mph96%29.83 "Hg4 mi
1:53 AM50 °FFog.9 mph96%29.82 "Hg2 mi
1:00 AM50 °FFog.6 mph93%29.82 "Hg2 mi
11:53 PM
Sat, Apr 25
50 °FFog.7 mph93%29.79 "Hg6 mi
10:53 PM50 °FLow clouds.9 mph89%29.78 "Hg9 mi
9:53 PM50 °FLow clouds.12 mph93%29.76 "Hg8 mi
8:53 PM51 °FLow clouds.13 mph89%29.74 "Hg7 mi
7:53 PM52 °FFog.13 mph86%29.70 "Hg6 mi
6:53 PM53 °FLow clouds.14 mph89%29.68 "Hg9 mi
5:53 PM56 °FLow clouds.13 mph87%29.65 "Hg10 mi
4:53 PM57 °FLow clouds.16 mph87%29.61 "Hg10 mi
3:53 PM61 °FMostly cloudy.14 mph81%29.57 "Hg10 mi
2:53 PM65 °FBroken clouds.13 mph81%29.52 "Hg10 mi
2:02 PM63 °FLight rain. Cloudy.13 mph90%29.51 "Hg10 mi
1:53 PM62 °FRain. Mostly cloudy.10 mph90%29.49 "Hg7 mi
1:01 PM60 °FLight rain. Fog.10 mph93%29.49 "Hg2 mi
12:00 PM59 °FLight rain. Fog.9 mph93%29.48 "Hg4 mi
Weather by CustomWeather, © 2015

See weather overviewHow to use our weather pages